Regional Weather Roundup
Issued by NWS

Home | Current Version | Previous Version | Graphics & Text | Print | Product List | Glossary On
Versions: 1 2 3 4 5 6 7 8 9 10 11 12 13 14 15 16 17 18 19 20 21 22 23 24 25 26 27 28 29 30 31 32 33 34 35 36 37 38 39 40 41 42 43 44 45 46 47 48 49 50
589
ASUS43 KMKX 250100
RWRWI

WISCONSIN REGIONAL WEATHER ROUNDUP
NATIONAL WEATHER SERVICE MILWAUKEE/SULLIVAN WI
800 PM CDT SAT JUN 24 2017

NOTE: "FAIR" INDICATES FEW OR NO CLOUDS BELOW 12,000 FEET WITH NO
SIGNIFICANT WEATHER AND/OR OBSTRUCTIONS TO VISIBILITY.

WIZ001-002-006>008-014>016-023>028-250200-
NORTHWEST WISCONSIN

CITY           SKY/WX    TMP DP  RH WIND       PRES   REMARKS
SUPERIOR ARPT  NOT AVBL
ASHLAND        PTCLDY    60  47  61 W9        29.95S
HAYWARD        CLOUDY    59  50  72 CALM      29.98R
SIREN          MOCLDY    60  44  53 CALM      30.00R
CUMBERLAND     MOCLDY    61  41  48 NW12      29.99R
RICE LAKE      PTCLDY    62  45  54 W7        30.01R
CHETEK         PTCLDY    60  47  63 NW6       29.99S
LADYSMITH      MOCLDY    60  46  60 NW7       29.99R
EAU CLAIRE     NOT AVBL
MENOMONIE      PTCLDY    59  47  66 SW8       30.01R
NEW RICHMOND   PTCLDY    60  42  51 NW15      30.02R
OSCEOLA        PTCLDY    60  43  53 W9        30.04R
$$

WIZ003>005-009-010-017-018-250200-
NORTH CENTRAL WISCONSIN

CITY           SKY/WX    TMP DP  RH WIND       PRES   REMARKS
MANITOWISH WTR CLOUDY    55  50  83 W5        29.95R
ARBOR VITAE    CLOUDY    57  48  73 NW8       29.95R
WOODRUFF       CLOUDY    57  48  73 NW8       29.95R
RHINELANDER    CLOUDY    53  49  86 NW3       29.96R
EAGLE RIVER    CLOUDY    55  45  68 W9        29.94S
LAND O LAKES   LGT RAIN  54  52  94 CALM      29.95S
PHILLIPS       MOCLDY    54  50  85 CALM      29.96S
TOMAHAWK       NOT AVBL
MEDFORD        MOCLDY    58  43  59 W8        29.97R
MERRILL        LGT RAIN  57  48  70 N8        29.97R
$$

WIZ029-030-035-036-043>047-250200-
CENTRAL WISCONSIN

CITY           SKY/WX    TMP DP  RH WIND       PRES   REMARKS
WAUSAU         CLOUDY    61  42  49 W13       29.94R
MOSINEE        MOCLDY    59  45  58 W12       29.98R
MARSHFIELD     CLOUDY    55  45  68 W8        29.98R
STEVENS POINT  CLOUDY    61  42  49 W7        29.96S
WAUPACA        PTCLDY    64  43  45 W7        29.95S
WAUTOMA        CLOUDY    58  47  66 W18G29    29.99R
WISC RAPIDS    CLOUDY    58  44  60 NW9       29.99R
CAMP DOUGLAS   CLOUDY    54  48  82 S7        29.99F
$$

WIZ011>013-019>022-031-037>040-048>050-250200-
NORTHEAST WISCONSIN

CITY           SKY/WX    TMP DP  RH WIND       PRES   REMARKS
ANTIGO         MOCLDY    58  47  67 NW12      29.95R
SHAWANO        MOCLDY    64  44  47 W7        29.93R
OCONTO         CLOUDY    61  54  76 CALM      29.91S
STURGEON BAY     N/A     61  52  72 N8          N/A
GREEN BAY      PTCLDY    65  47  52 W8        29.93R
MANITOWOC      NOT AVBL
APPLETON       MOCLDY    63  37  39 W9        29.94R
CLINTONVILLE   CLOUDY    64  41  42 W10       29.94R
OSHKOSH        MOCLDY    64  46  52 VRB5      29.95S
$$

WIZ032>034-041-042-053>061-250200-
SOUTHWEST WISCONSIN

CITY           SKY/WX    TMP DP  RH WIND       PRES   REMARKS
LA CROSSE      CLEAR     60  50  69 SW6       30.03S
SPARTA         CLEAR     52  50  92 CALM      30.03R
VIROQUA        CLEAR     53  48  83 CALM      30.04F
BOSCOBEL       PTCLDY    59  53  80 W5        30.05F
PRAIRIE DU CHI PTCLDY    59  52  77 N3        30.05R
PLATTEVILLE    PTCLDY    59  55  84 N7        30.06R
$$

WIZ056-057-062-063-064-067-068-250200-
SOUTH CENTRAL WISCONSIN

CITY           SKY/WX    TMP DP  RH WIND       PRES   REMARKS
REEDSBURG      CLOUDY    55  50  82 W10       30.03F
BARABOO/DELLS  CLOUDY    55  48  79 W7        30.04R
LONE ROCK      CLOUDY    58  50  75 NW7       30.04F
MINERAL POINT  LGT RAIN  54  54 100 N9        30.05R
MADISON        LGT RAIN  56  52  86 W7        30.04R
MIDDLETON      CLOUDY    56  53  89 NW9       30.05R
WATERTOWN      LGT RAIN  57  49  73 W7        30.01R
MONROE         RAIN      55  52  88 S9        30.05F
JANESVILLE     MOCLDY    57  55  94 NW6       30.05S
$$

WIZ051-052-058>065-066-070>072-250200-
SOUTHEAST WISCONSIN

CITY           SKY/WX    TMP DP  RH WIND       PRES   REMARKS
MILWAUKEE      PTCLDY    69  42  37 W14G23    30.00R
WAUKESHA       MOCLDY    63  43  48 W10       30.02R
MILWAUKEE/TIMM PTCLDY    66  37  34 W13G18    30.00R
RACINE         CLEAR     67  41  38 NW7       30.02R
KENOSHA        CLEAR     64  45  49 W8        30.02R
FOND DU LAC    CLOUDY    64  43  46 W12       29.97R
SHEBOYGAN      PTCLDY    64  44  48 W10       29.96R
WEST BEND      PTCLDY    64  41  42 W9G20     29.98R
JUNEAU         CLOUDY    62  44  53 SW18      30.01R
$$

LSZ147-162-250200-
LAKE SUPERIOR

STATION/POSITION TIME  TEMP    WIND        PRES    WAVE
                       AIR SEA DIR/SP/G            HT/PER
                 (UTC) (F)     (DEG/KT/KT) (MB)    (FT/S)
W MID LAKE BUOY  2350   44 39  240/  2/  2 1013.5R   1/ 4
DEVILS ISLAND    0000   54     220/  6/  8 1013.6R
SAXON HARBOR     0030   60      80/  2/  2 1013.5S
$$

LMZ867-665-643>646-250200-
LAKE MICHIGAN

STATION/POSITION TIME  TEMP    WIND        PRES    WAVE
                       AIR SEA DIR/SP/G            HT/PER
                 (UTC) (F)     (DEG/KT/KT) (MB)    (FT/S)
CHAMBERS ISLAND  0030   60     310/  9/ 11 1012.9R
S GREEN BAY BUOY 0030   63      70/ 10/ 12 1013.0R
N MID LAKE BUOY  2350   58 57  260/  4/  6 1013.3R   1/ 3
NORTHPORT PIER   0040   60     320/ 12/ 14 1012.9R
KEWAUNEE LAKESHO 0030   67     280/  6/  9 1013.0R
SHEBOYGAN LAKESH 0000   67     270/ 17/ 22 1013.8R
PORT WASHINGTON  0030   69     280/ 10/ 16 1015.6R
ATWATER BUOY     2309   67 60  260/ 16/ 21 1014.7R
MILWAUKEE LAKESH 0030   68     290/ 16/ 21   N/A
S MID LAKE BUOY  2350   65 63  330/  4/  6 1015.1R   1/ 3
KENOSHA   LAKESH 0000   70     300/ 10/ 19 1015.2
$$

TC  - TEMPERATURE IN CELSIUS
VSB - VISIBILITY IN STATUTE MILES
WCI - WIND CHILL INDEX
HX  - HEAT INDEX





USA.gov is the U.S. government's official web portal to all federal, state and local government web resources and services.